Time,TemperatureF,DewpointF,PressureIn,WindDirection,WindDirectionDegrees,WindSpeedMPH,WindSpeedGustMPH,Humidity,HourlyPrecipIn,Conditions,Clouds,dailyrainin,SoftwareType,DateUTC
2013-04-06 00:26:00,52.2,24.0,30.07,NW,326,10.0,16.0,33,0.00,,,0.00,weatherlink.com 1.10,2013-04-06 04:26:00,
2013-04-06 00:41:00,51.7,22.0,30.07,NNE,15,12.0,13.0,31,0.00,,,0.00,weatherlink.com 1.10,2013-04-06 04:41:00,
2013-04-06 00:56:00,51.2,24.0,30.08,North,4,9.0,9.0,34,0.00,,,0.00,weatherlink.com 1.10,2013-04-06 04:56:00,
2013-04-06 01:11:00,50.7,23.0,30.08,NNW,343,9.0,12.0,34,0.00,,,0.00,weatherlink.com 1.10,2013-04-06 05:11:00,
2013-04-06 01:26:00,50.3,21.0,30.09,NNE,20,11.0,13.0,32,0.00,,,0.00,weatherlink.com 1.10,2013-04-06 05:26:00,
2013-04-06 01:41:00,49.9,23.0,30.10,NNE,31,9.0,12.0,35,0.00,,,0.00,weatherlink.com 1.10,2013-04-06 05:41:00,
2013-04-06 01:56:00,49.3,21.0,30.10,NNE,13,8.0,14.0,33,0.00,,,0.00,weatherlink.com 1.10,2013-04-06 05:56:00,
2013-04-06 02:11:00,48.7,22.0,30.11,NE,34,7.0,14.0,35,0.00,,,0.00,weatherlink.com 1.10,2013-04-06 06:11:00,
2013-04-06 02:26:00,48.3,22.0,30.11,NNW,335,7.0,8.0,36,0.00,,,0.00,weatherlink.com 1.10,2013-04-06 06:26:00,
2013-04-06 02:42:00,47.7,22.0,30.11,NNE,12,11.0,14.0,36,0.00,,,0.00,weatherlink.com 1.10,2013-04-06 06:42:00,
2013-04-06 02:57:00,47.4,21.0,30.12,NNE,15,7.0,15.0,35,0.00,,,0.00,weatherlink.com 1.10,2013-04-06 06:57:00,
2013-04-06 03:12:00,46.9,22.0,30.13,NNE,16,7.0,11.0,37,0.00,,,0.00,weatherlink.com 1.10,2013-04-06 07:12:00,
2013-04-06 03:27:00,46.4,22.0,30.13,North,357,6.0,11.0,39,0.00,,,0.00,weatherlink.com 1.10,2013-04-06 07:27:00,
2013-04-06 03:42:00,45.8,23.0,30.14,NNE,27,5.0,9.0,40,0.00,,,0.00,weatherlink.com 1.10,2013-04-06 07:42:00,
2013-04-06 03:57:00,45.2,23.0,30.15,NE,34,7.0,9.0,41,0.00,,,0.00,weatherlink.com 1.10,2013-04-06 07:57:00,
2013-04-06 04:12:00,44.8,23.0,30.16,NNE,32,13.0,17.0,42,0.00,,,0.00,weatherlink.com 1.10,2013-04-06 08:12:00,
2013-04-06 04:27:00,44.4,22.0,30.17,North,9,13.0,15.0,41,0.00,,,0.00,weatherlink.com 1.10,2013-04-06 08:27:00,
2013-04-06 04:42:00,43.9,23.0,30.18,NE,37,7.0,13.0,43,0.00,,,0.00,weatherlink.com 1.10,2013-04-06 08:42:00,
2013-04-06 04:57:00,43.5,23.0,30.19,NE,46,8.0,11.0,44,0.00,,,0.00,weatherlink.com 1.10,2013-04-06 08:57:00,
2013-04-06 05:27:00,42.6,23.0,30.20,NNE,25,6.0,9.0,47,0.00,,,0.00,weatherlink.com 1.10,2013-04-06 09:27:00,
2013-04-06 05:42:00,42.1,23.0,30.21,North,349,7.0,8.0,47,0.00,,,0.00,weatherlink.com 1.10,2013-04-06 09:42:00,
2013-04-06 05:57:00,41.7,24.0,30.22,NNE,15,8.0,10.0,49,0.00,,,0.00,weatherlink.com 1.10,2013-04-06 09:57:00,
2013-04-06 06:12:00,41.3,23.0,30.22,NNE,25,9.0,12.0,48,0.00,,,0.00,weatherlink.com 1.10,2013-04-06 10:12:00,
2013-04-06 06:42:00,40.6,24.0,30.25,NNW,336,5.0,9.0,51,0.00,,,0.00,weatherlink.com 1.10,2013-04-06 10:42:00,
2013-04-06 06:58:00,40.4,24.0,30.26,NNW,340,6.0,8.0,52,0.00,,,0.00,weatherlink.com 1.10,2013-04-06 10:58:00,
2013-04-06 07:13:00,40.6,24.0,30.28,NNE,18,5.0,10.0,51,0.00,,,0.00,weatherlink.com 1.10,2013-04-06 11:13:00,
2013-04-06 07:28:00,40.8,24.0,30.28,NNE,16,5.0,8.0,52,0.00,,,0.00,weatherlink.com 1.10,2013-04-06 11:28:00,
2013-04-06 07:43:00,41.1,24.0,30.30,NE,34,6.0,8.0,52,0.00,,,0.00,weatherlink.com 1.10,2013-04-06 11:43:00,
2013-04-06 07:58:00,41.3,24.0,30.30,NNE,32,9.0,12.0,50,0.00,,,0.00,weatherlink.com 1.10,2013-04-06 11:58:00,
2013-04-06 08:13:00,41.5,23.0,30.31,NNE,19,10.0,14.0,49,0.00,,,0.00,weatherlink.com 1.10,2013-04-06 12:13:00,
2013-04-06 08:28:00,41.8,24.0,30.31,NE,37,5.0,11.0,50,0.00,,,0.00,weatherlink.com 1.10,2013-04-06 12:28:00,
2013-04-06 08:43:00,42.3,25.0,30.31,ENE,60,6.0,14.0,50,0.00,,,0.00,weatherlink.com 1.10,2013-04-06 12:43:00,
2013-04-06 08:58:00,42.4,24.0,30.31,NE,56,16.0,16.0,49,0.00,,,0.00,weatherlink.com 1.10,2013-04-06 12:58:00,
2013-04-06 09:13:00,42.4,25.0,30.32,ENE,71,13.0,14.0,50,0.00,,,0.00,weatherlink.com 1.10,2013-04-06 13:13:00,
2013-04-06 09:28:00,42.2,25.0,30.33,NE,53,13.0,16.0,50,0.00,,,0.00,weatherlink.com 1.10,2013-04-06 13:28:00,
2013-04-06 09:43:00,42.1,26.0,30.33,NE,42,8.0,18.0,53,0.00,,,0.00,weatherlink.com 1.10,2013-04-06 13:43:00,
2013-04-06 10:13:00,42.1,23.0,30.34,NNE,27,7.0,16.0,47,0.00,,,0.00,weatherlink.com 1.10,2013-04-06 14:13:00,
2013-04-06 10:28:00,42.1,26.0,30.34,ENE,66,10.0,14.0,53,0.00,,,0.00,weatherlink.com 1.10,2013-04-06 14:28:00,
2013-04-06 10:58:00,42.4,28.0,30.35,East,82,9.0,12.0,56,0.00,,,0.00,weatherlink.com 1.10,2013-04-06 14:58:00,
2013-04-06 11:13:00,42.4,26.0,30.36,East,91,13.0,16.0,53,0.00,,,0.00,weatherlink.com 1.10,2013-04-06 15:13:00,
2013-04-06 11:28:00,41.6,25.0,30.36,ENE,76,15.0,16.0,53,0.00,,,0.00,weatherlink.com 1.10,2013-04-06 15:28:00,
2013-04-06 11:58:00,41.5,25.0,30.36,ESE,108,12.0,14.0,53,0.00,,,0.00,weatherlink.com 1.10,2013-04-06 15:58:00,
2013-04-06 12:28:00,41.8,25.0,30.36,East,85,10.0,12.0,52,0.00,,,0.00,weatherlink.com 1.10,2013-04-06 16:28:00,
2013-04-06 12:44:00,42.2,23.0,30.36,East,87,10.0,11.0,47,0.00,,,0.00,weatherlink.com 1.10,2013-04-06 16:44:00,
2013-04-06 12:59:00,42.6,22.0,30.36,East,91,12.0,12.0,45,0.00,,,0.00,weatherlink.com 1.10,2013-04-06 16:59:00,
2013-04-06 13:14:00,42.9,23.0,30.35,East,82,9.0,12.0,45,0.00,,,0.00,weatherlink.com 1.10,2013-04-06 17:14:00,
2013-04-06 13:29:00,43.2,22.0,30.35,East,80,9.0,10.0,43,0.00,,,0.00,weatherlink.com 1.10,2013-04-06 17:29:00,
2013-04-06 13:44:00,43.5,21.0,30.35,ENE,67,8.0,10.0,41,0.00,,,0.00,weatherlink.com 1.10,2013-04-06 17:44:00,
2013-04-06 13:59:00,43.7,20.0,30.34,East,89,10.0,11.0,39,0.00,,,0.00,weatherlink.com 1.10,2013-04-06 17:59:00,
2013-04-06 14:29:00,44.5,21.0,30.34,East,82,10.0,11.0,39,0.00,,,0.00,weatherlink.com 1.10,2013-04-06 18:29:00,
2013-04-06 14:44:00,45.0,22.0,30.33,East,94,8.0,11.0,41,0.00,,,0.00,weatherlink.com 1.10,2013-04-06 18:44:00,
2013-04-06 14:59:00,45.2,22.0,30.33,East,94,8.0,10.0,40,0.00,,,0.00,weatherlink.com 1.10,2013-04-06 18:59:00,
2013-04-06 15:14:00,45.7,20.0,30.32,East,86,11.0,11.0,36,0.00,,,0.00,weatherlink.com 1.10,2013-04-06 19:14:00,
2013-04-06 15:29:00,45.9,19.0,30.32,East,91,9.0,10.0,34,0.00,,,0.00,weatherlink.com 1.10,2013-04-06 19:29:00,
2013-04-06 15:44:00,46.3,24.0,30.32,East,84,7.0,9.0,41,0.00,,,0.00,weatherlink.com 1.10,2013-04-06 19:44:00,
2013-04-06 16:00:00,46.6,19.0,30.31,ENE,77,6.0,7.0,33,0.00,,,0.00,weatherlink.com 1.10,2013-04-06 20:00:00,
2013-04-06 16:14:00,46.9,24.0,30.30,ENE,78,4.0,6.0,41,0.00,,,0.00,weatherlink.com 1.10,2013-04-06 20:14:00,
2013-04-06 16:29:00,47.2,25.0,30.30,ENE,68,5.0,7.0,42,0.00,,,0.00,weatherlink.com 1.10,2013-04-06 20:29:00,
2013-04-06 16:44:00,47.4,23.0,30.30,ENE,68,7.0,7.0,38,0.00,,,0.00,weatherlink.com 1.10,2013-04-06 20:44:00,
2013-04-06 16:59:00,47.6,26.0,30.30,ENE,73,7.0,7.0,43,0.00,,,0.00,weatherlink.com 1.10,2013-04-06 20:59:00,
2013-04-06 17:14:00,48.3,27.0,30.30,ENE,72,5.0,7.0,44,0.00,,,0.00,weatherlink.com 1.10,2013-04-06 21:14:00,
2013-04-06 17:29:00,49.3,23.0,30.30,SE,146,6.0,8.0,36,0.00,,,0.00,weatherlink.com 1.10,2013-04-06 21:29:00,
2013-04-06 17:44:00,50.4,24.0,30.30,SSE,157,5.0,8.0,35,0.00,,,0.00,weatherlink.com 1.10,2013-04-06 21:44:00,
2013-04-06 17:59:00,50.8,24.0,30.30,SSE,162,5.0,7.0,35,0.00,,,0.00,weatherlink.com 1.10,2013-04-06 21:59:00,
2013-04-06 18:14:00,51.2,26.0,30.30,SE,141,6.0,8.0,37,0.00,,,0.00,weatherlink.com 1.10,2013-04-06 22:14:00,
2013-04-06 18:29:00,52.0,26.0,30.30,SSW,193,5.0,7.0,36,0.00,,,0.00,weatherlink.com 1.10,2013-04-06 22:29:00,
2013-04-06 18:44:00,52.2,24.0,30.30,SSW,205,4.0,6.0,34,0.00,,,0.00,weatherlink.com 1.10,2013-04-06 22:44:00,
2013-04-06 18:59:00,50.9,24.0,30.31,South,176,4.0,7.0,35,0.00,,,0.00,weatherlink.com 1.10,2013-04-06 22:59:00,
2013-04-06 19:29:00,47.8,27.0,30.30,SSE,162,3.0,7.0,44,0.00,,,0.00,weatherlink.com 1.10,2013-04-06 23:29:00,
2013-04-06 19:44:00,47.2,28.0,30.31,SSW,200,3.0,7.0,47,0.00,,,0.00,weatherlink.com 1.10,2013-04-06 23:44:00,
2013-04-06 19:59:00,46.8,31.0,30.31,SSW,202,3.0,7.0,55,0.00,,,0.00,weatherlink.com 1.10,2013-04-06 23:59:00,
2013-04-06 20:14:00,46.4,31.0,30.30,SSW,210,1.0,4.0,55,0.00,,,0.00,weatherlink.com 1.10,2013-04-07 00:14:00,
2013-04-06 20:29:00,46.2,31.0,30.30,WSW,252,1.0,3.0,55,0.00,,,0.00,weatherlink.com 1.10,2013-04-07 00:29:00,
2013-04-06 20:44:00,45.4,31.0,30.31,WSW,239,0.0,1.0,58,0.00,,,0.00,weatherlink.com 1.10,2013-04-07 00:44:00,
2013-04-06 20:59:00,45.2,30.0,30.31,WSW,238,0.0,1.0,56,0.00,,,0.00,weatherlink.com 1.10,2013-04-07 00:59:00,
2013-04-06 21:30:00,46.4,34.0,30.32,SSW,195,0.0,0.0,62,0.00,,,0.00,weatherlink.com 1.10,2013-04-07 01:30:00,
2013-04-06 21:59:00,46.3,37.0,30.32,SW,225,8.0,16.0,69,0.00,,,0.00,weatherlink.com 1.10,2013-04-07 01:59:00,
2013-04-06 22:44:00,45.3,35.0,30.32,SW,219,19.0,21.0,68,0.00,,,0.00,weatherlink.com 1.10,2013-04-07 02:44:00,
2013-04-06 22:59:00,45.1,34.0,30.32,SW,218,8.0,20.0,65,0.00,,,0.00,weatherlink.com 1.10,2013-04-07 02:59:00,
2013-04-06 23:14:00,45.0,35.0,30.32,SSW,208,5.0,21.0,67,0.00,,,0.00,weatherlink.com 1.10,2013-04-07 03:14:00,
2013-04-06 23:29:00,44.9,33.0,30.32,SW,236,13.0,20.0,63,0.00,,,0.00,weatherlink.com 1.10,2013-04-07 03:29:00,
2013-04-06 23:44:00,44.6,34.0,30.32,SSW,210,11.0,21.0,66,0.00,,,0.00,weatherlink.com 1.10,2013-04-07 03:44:00,
2013-04-06 23:59:00,44.4,35.0,30.32,SW,220,6.0,21.0,69,0.00,,,0.00,weatherlink.com 1.10,2013-04-07 03:59:00,